FW5442 Weather Reports


time (UTC)temp
C
wind
direction
speed
KPH
gust
KPH
rain 1hr
cm
rain 24hr
cm
rain mn
cm
humidity
%
barometer
mb
20260508220555 23 149 14.5 25.7 0.00 0.00 0.00 53 1010.5
20260508220055 23 160 16.1 25.7 0.00 0.00 0.00 52 1010.4
20260508215552 23 176 11.3 25.7 0.00 0.00 0.00 53 1010.4
20260508215056 23 150 9.7 27.4 0.00 0.00 0.00 53 1010.4
20260508214611 23 139 8.0 27.4 0.00 0.00 0.00 54 1010.5
20260508214055 22 0 8.0 29.0 0.00 0.00 0.00 53 1010.5
20260508213555 22 169 11.3 29.0 0.00 0.00 0.00 52 1010.5
20260508213058 22 189 6.4 30.6 0.00 0.00 0.00 52 1010.7
20260508212554 22 172 17.7 30.6 0.00 0.00 0.00 51 1010.9
20260508212054 22 150 19.3 30.6 0.00 0.00 0.00 53 1010.8
20260508211558 23 142 14.5 29.0 0.00 0.00 0.00 52 1010.8
20260508211056 23 166 14.5 30.6 0.00 0.00 0.00 53 1011.0
20260508210556 23 139 9.7 30.6 0.00 0.00 0.00 52 1011.0
20260508210054 23 157 24.1 30.6 0.00 0.00 0.00 52 1011.2
20260508205555 23 163 19.3 29.0 0.00 0.00 0.00 52 1011.3
20260508205055 23 144 17.7 29.0 0.00 0.00 0.00 52 1011.1
20260508204602 23 130 20.9 32.2 0.00 0.00 0.00 50 1011.1
20260508204056 23 179 14.5 32.2 0.00 0.00 0.00 50 1011.3
20260508203552 23 144 17.7 33.8 0.00 0.00 0.00 51 1011.3
20260508203053 23 172 14.5 33.8 0.00 0.00 0.00 50 1011.5
20260508202555 22 124 22.5 33.8 0.00 0.00 0.00 51 1011.5
20260508202052 23 137 17.7 29.0 0.00 0.00 0.00 51 1011.5
20260508201607 23 129 12.9 32.2 0.00 0.00 0.00 50 1011.6
20260508201052 23 165 9.7 32.2 0.00 0.00 0.00 50 1011.7
20260508200552 23 174 14.5 30.6 0.00 0.00 0.00 51 1011.7
20260508200058 22 141 14.5 27.4 0.00 0.00 0.00 51 1011.8
20260508195551 23 124 16.1 32.2 0.00 0.00 0.00 49 1011.8
20260508195052 23 188 19.3 32.2 0.00 0.00 0.00 48 1011.8
20260508194621 22 174 19.3 30.6 0.00 0.00 0.00 48 1011.6
20260508194051 22 173 9.7 25.7 0.00 0.00 0.00 50 1011.7
20260508193551 22 160 9.7 25.7 0.00 0.00 0.00 52 1011.8
20260508193101 22 143 4.8 24.1 0.00 0.00 0.00 50 1011.9
20260508192555 22 165 6.4 25.7 0.00 0.00 0.00 50 1012.2
20260508192057 22 122 16.1 25.7 0.00 0.00 0.00 49 1012.2
20260508191600 22 0 9.7 25.7 0.00 0.00 0.00 49 1012.2
20260508191055 22 180 11.3 25.7 0.00 0.00 0.00 50 1012.0
20260508190557 22 157 6.4 24.1 0.00 0.00 0.00 51 1012.1
20260508190058 22 122 12.9 24.1 0.00 0.00 0.00 50 1012.2
20260508185552 22 138 4.8 24.1 0.00 0.00 0.00 53 1012.3
20260508185053 22 153 8.0 20.9 0.00 0.00 0.00 52 1012.2
20260508184603 22 171 4.8 20.9 0.00 0.00 0.00 52 1012.5
20260508184055 22 166 8.0 22.5 0.00 0.00 0.00 50 1012.4
20260508183551 22 0 9.7 22.5 0.00 0.00 0.00 48 1012.4
20260508183100 22 172 3.2 24.1 0.00 0.00 0.00 50 1012.6
20260508182559 22 138 9.7 29.0 0.00 0.00 0.00 49 1012.9
20260508182054 22 141 14.5 29.0 0.00 0.00 0.00 49 1012.9
20260508181632 22 174 8.0 25.7 0.00 0.00 0.00 50 1013.1
20260508181055 21 0 9.7 19.3 0.00 0.00 0.00 52 1013.2
20260508180559 21 0 1.6 24.1 0.00 0.00 0.00 51 1013.3
20260508175555 22 141 4.8 22.5 0.00 0.00 0.00 51 1013.2
20260508175057 22 181 8.0 22.5 0.00 0.00 0.00 49 1013.4
20260508174603 21 0 1.6 25.7 0.00 0.00 0.00 51 1013.5
20260508174056 21 113 6.4 25.7 0.00 0.00 0.00 49 1013.5
20260508173556 21 140 11.3 22.5 0.00 0.00 0.00 48 1013.4
20260508173057 21 155 6.4 19.3 0.00 0.00 0.00 52 1013.8
20260508172555 21 186 3.2 16.1 0.00 0.00 0.00 51 1014.1
20260508172056 21 0 4.8 17.7 0.00 0.00 0.00 50 1014.2
20260508171556 21 138 3.2 17.7 0.00 0.00 0.00 52 1014.1
20260508171055 21 133 8.0 17.7 0.00 0.00 0.00 53 1014.2
20260508170555 21 147 3.2 20.9 0.00 0.00 0.00 52 1014.4
20260508170054 20 133 4.8 20.9 0.00 0.00 0.00 52 1014.4
20260508165555 20 141 4.8 20.9 0.00 0.00 0.00 53 1014.4
20260508165055 21 127 6.4 20.9 0.00 0.00 0.00 53 1014.6
20260508164554 21 138 12.9 20.9 0.00 0.00 0.00 49 1014.9
20260508164052 21 0 8.0 19.3 0.00 0.00 0.00 51 1015.2
20260508163555 21 169 0.0 19.3 0.00 0.00 0.00 53 1015.2
20260508163100 21 125 9.7 20.9 0.00 0.00 0.00 51 1015.3
20260508162557 21 135 11.3 20.9 0.00 0.00 0.00 50 1015.3
20260508162055 21 0 1.6 19.3 0.00 0.00 0.00 51 1015.4
20260508161605 21 0 3.2 19.3 0.00 0.00 0.00 51 1015.3
20260508161055 21 167 3.2 17.7 0.00 0.00 0.00 53 1015.2
20260508160554 20 0 8.0 19.3 0.00 0.00 0.00 53 1015.1
20260508160058 20 0 4.8 19.3 0.00 0.00 0.00 53 1015.1
20260508155557 20 118 0.0 17.7 0.00 0.00 0.00 55 1015.1
20260508155056 20 131 6.4 17.7 0.00 0.00 0.00 53 1014.9
20260508154558 20 135 8.0 20.9 0.00 0.00 0.00 52 1015.0
20260508154051 20 141 8.0 20.9 0.00 0.00 0.00 53 1015.3
20260508153555 20 0 4.8 22.5 0.00 0.00 0.00 54 1015.2
20260508153056 20 98 12.9 22.5 0.00 0.00 0.00 52 1015.1
20260508152555 19 124 11.3 24.1 0.00 0.00 0.00 52 1015.1
20260508152055 19 122 12.9 24.1 0.00 0.00 0.00 54 1015.0
20260508151605 19 120 17.7 24.1 0.00 0.00 0.00 53 1015.2
20260508151055 19 125 12.9 22.5 0.00 0.00 0.00 54 1015.1
20260508150554 19 123 12.9 22.5 0.00 0.00 0.00 58 1015.1
20260508150054 18 116 11.3 22.5 0.00 0.00 0.00 59 1015.1
20260508145552 18 117 16.1 22.5 0.00 0.00 0.00 59 1015.3
20260508145054 18 120 16.1 20.9 0.00 0.00 0.00 61 1015.2
20260508144553 18 95 11.3 22.5 0.00 0.00 0.00 61 1015.2
20260508144052 18 113 11.3 22.5 0.00 0.00 0.00 62 1015.2
20260508143553 18 122 8.0 22.5 0.00 0.00 0.00 63 1015.3
20260508143055 17 117 9.7 17.7 0.00 0.00 0.00 67 1015.3
20260508142552 17 0 9.7 17.7 0.00 0.00 0.00 65 1015.5
20260508142051 17 0 9.7 19.3 0.00 0.00 0.00 65 1015.7
20260508141600 17 129 16.1 20.9 0.00 0.00 0.00 66 1015.9
20260508141052 17 117 12.9 20.9 0.00 0.00 0.00 65 1015.8
20260508140557 17 110 8.0 17.7 0.00 0.00 0.00 68 1016.0
20260508140054 17 117 11.3 16.1 0.00 0.00 0.00 67 1016.3
20260508135555 16 122 9.7 16.1 0.00 0.00 0.00 69 1016.2
20260508135052 16 124 11.3 16.1 0.00 0.00 0.00 70 1016.1
20260508134559 16 110 9.7 16.1 0.00 0.00 0.00 70 1016.1
20260508134059 16 0 0.0 16.1 0.00 0.00 0.00 72 1016.2
20260508133555 16 0 9.7 16.1 0.00 0.00 0.00 72 1016.2
20260508133105 16 123 1.6 16.1 0.00 0.00 0.00 74 1016.2
20260508132554 16 0 8.0 16.1 0.00 0.00 0.00 73 1016.3
20260508132055 16 120 9.7 14.5 0.00 0.00 0.00 73 1016.2
20260508131607 15 101 8.0 11.3 0.00 0.00 0.00 76 1016.3
20260508131052 15 109 8.0 11.3 0.00 0.00 0.00 76 1016.2
20260508130551 15 107 6.4 11.3 0.00 0.00 0.00 78 1016.4
20260508125555 14 70 8.0 12.9 0.00 0.00 0.00 79 1016.2
20260508125051 14 96 8.0 12.9 0.00 0.00 0.00 79 1016.0
20260508124558 14 76 0.0 0.0 0.00 0.00 0.00 81 1016.1
20260508124055 14 0 0.0 0.0 0.00 0.00 0.00 81 1016.2
20260508123555 13 0 0.0 0.0 0.00 0.00 0.00 82 1016.1
20260508123106 13 0 0.0 6.4 0.00 0.00 0.00 84 1016.1
20260508122555 13 0 0.0 6.4 0.00 0.00 0.00 84 1016.1
20260508122056 13 60 1.6 6.4 0.00 0.00 0.00 84 1016.3
20260508121557 12 0 0.0 6.4 0.00 0.00 0.00 84 1016.0
20260508121054 12 0 0.0 6.4 0.00 0.00 0.00 84 1016.0
20260508120554 12 81 0.0 6.4 0.00 0.00 0.00 82 1016.0
20260508120057 11 0 1.6 6.4 0.00 0.00 0.00 80 1016.1
20260508115552 11 0 3.2 6.4 0.00 0.00 0.00 77 1015.9
20260508115055 11 0 0.0 0.0 0.00 0.00 0.00 71 1016.0
20260508114558 11 0 0.0 0.0 0.00 0.00 0.00 68 1015.9
20260508114051 10 0 0.0 0.0 0.00 0.00 0.00 67 1015.8
20260508113555 10 0 0.0 0.0 0.00 0.00 0.00 63 1015.7
20260508113056 10 0 0.0 0.0 0.00 0.00 0.00 62 1015.7
20260508112551 10 0 0.0 0.0 0.00 0.00 0.00 63 1015.7
20260508112051 10 0 0.0 0.0 0.00 0.00 0.00 63 1015.7
20260508111606 10 0 0.0 0.0 0.00 0.00 0.00 64 1015.8
20260508111055 10 0 0.0 0.0 0.00 0.00 0.00 66 1015.7
20260508110554 10 0 0.0 0.0 0.00 0.00 0.00 69 1015.7
20260508105555 10 0 0.0 0.0 0.00 0.00 0.00 71 1015.5
20260508105055 10 0 0.0 0.0 0.00 0.00 0.00 70 1015.5
20260508104557 10 0 0.0 0.0 0.00 0.00 0.00 69 1015.5
20260508104055 10 0 0.0 0.0 0.00 0.00 0.00 69 1015.7
20260508103555 10 0 0.0 0.0 0.00 0.00 0.00 69 1015.5
20260508103054 11 0 0.0 0.0 0.00 0.00 0.00 67 1015.6
20260508102552 11 0 0.0 0.0 0.00 0.00 0.00 64 1015.6
20260508102051 10 0 0.0 0.0 0.00 0.00 0.00 61 1015.8
20260508101557 10 0 0.0 0.0 0.00 0.00 0.00 59 1015.5
20260508101051 10 0 0.0 0.0 0.00 0.00 0.00 60 1015.5
20260508100555 10 0 0.0 0.0 0.00 0.00 0.00 61 1015.6
20260508100057 10 0 0.0 0.0 0.00 0.00 0.00 63 1015.5
20260508095555 10 0 0.0 0.0 0.00 0.00 0.00 64 1015.6
20260508095057 10 0 0.0 0.0 0.00 0.00 0.00 65 1015.7
20260508094610 10 0 0.0 0.0 0.00 0.00 0.00 67 1015.7
20260508094057 10 0 0.0 0.0 0.00 0.00 0.00 67 1015.4
20260508093555 10 0 0.0 0.0 0.00 0.00 0.00 68 1015.3
20260508093101 10 0 0.0 0.0 0.00 0.00 0.00 70 1015.2
20260508092553 10 0 0.0 0.0 0.00 0.00 0.00 70 1015.2
20260508092054 10 0 0.0 0.0 0.00 0.00 0.00 72 1015.1
20260508091604 11 0 0.0 0.0 0.00 0.00 0.00 71 1015.1
20260508091052 11 0 0.0 0.0 0.00 0.00 0.00 74 1015.2
20260508090552 11 0 0.0 0.0 0.00 0.00 0.00 76 1015.1
20260508090056 11 0 0.0 0.0 0.00 0.00 0.00 78 1015.0
20260508085552 11 0 0.0 0.0 0.00 0.00 0.00 80 1014.9
20260508085054 11 0 0.0 0.0 0.00 0.00 0.00 80 1015.0
20260508084551 11 0 0.0 0.0 0.00 0.00 0.00 79 1014.8
20260508084052 11 0 0.0 0.0 0.00 0.00 0.00 76 1015.0
20260508083553 11 0 0.0 0.0 0.00 0.00 0.00 77 1014.9
20260508083053 11 0 0.0 0.0 0.00 0.00 0.00 78 1015.0
20260508082554 11 0 0.0 0.0 0.00 0.00 0.00 78 1014.7
20260508082052 11 0 0.0 0.0 0.00 0.00 0.00 78 1014.7
20260508081619 11 0 0.0 0.0 0.00 0.00 0.00 77 1014.9
20260508081054 11 0 0.0 0.0 0.00 0.00 0.00 72 1014.9
20260508080555 11 0 0.0 0.0 0.00 0.00 0.00 72 1015.0
20260508080053 11 0 0.0 0.0 0.00 0.00 0.00 72 1015.1
20260508075552 11 0 0.0 0.0 0.00 0.00 0.00 72 1015.1
20260508075054 11 0 0.0 0.0 0.00 0.00 0.00 73 1015.2
20260508074553 11 0 0.0 0.0 0.00 0.00 0.00 75 1015.0
20260508074052 11 0 0.0 0.0 0.00 0.00 0.00 75 1014.9
20260508073553 11 0 0.0 0.0 0.00 0.00 0.00 74 1014.8
20260508073055 11 0 0.0 0.0 0.00 0.00 0.00 74 1014.8
20260508072555 11 0 0.0 0.0 0.00 0.00 0.00 74 1014.9
20260508072052 11 0 0.0 0.0 0.00 0.00 0.00 75 1015.0
20260508071557 11 0 0.0 0.0 0.00 0.00 0.00 77 1015.0
20260508071052 11 0 0.0 0.0 0.00 0.00 0.00 78 1015.3
20260508070558 11 0 0.0 0.0 0.00 0.00 0.00 80 1015.4
20260508070107 11 0 0.0 0.0 0.00 0.00 0.00 80 1015.3
20260508065553 11 0 0.0 0.0 0.00 0.00 0.00 82 1015.5
20260508065056 12 0 0.0 0.0 0.00 0.00 0.00 83 1015.4
20260508064557 12 0 0.0 0.0 0.00 0.00 0.00 83 1015.4
20260508064052 12 0 0.0 0.0 0.00 0.00 0.00 83 1015.5
20260508063553 12 0 0.0 0.0 0.00 0.00 0.00 83 1015.5
20260508063058 12 0 0.0 0.0 0.00 0.00 0.00 83 1015.6
20260508062552 12 0 0.0 0.0 0.00 0.00 0.00 83 1015.3
20260508062052 12 0 0.0 0.0 0.00 0.00 0.00 83 1015.5
20260508061557 12 0 0.0 0.0 0.00 0.00 0.00 83 1015.5
20260508061054 12 0 0.0 0.0 0.00 0.00 0.00 83 1015.5
20260508060553 13 0 0.0 0.0 0.00 0.00 0.00 83 1015.5
20260508060100 13 0 0.0 0.0 0.00 0.00 0.00 83 1015.5
20260508055554 13 0 0.0 0.0 0.00 0.00 0.00 83 1015.5
20260508055052 13 0 0.0 0.0 0.00 0.00 0.00 83 1015.3
20260508054558 13 0 0.0 0.0 0.00 0.00 0.00 83 1015.4
20260508054055 13 0 0.0 0.0 0.00 0.00 0.00 83 1015.6
20260508053557 13 0 0.0 0.0 0.00 0.00 0.00 83 1015.9
20260508053059 13 0 0.0 0.0 0.00 0.00 0.00 83 1015.6
20260508052557 13 0 0.0 0.0 0.00 0.00 0.00 83 1015.7
20260508052057 13 0 0.0 0.0 0.00 0.00 0.00 83 1015.5
20260508051559 13 0 0.0 0.0 0.00 0.00 0.00 83 1015.5
20260508051056 13 0 0.0 0.0 0.00 0.00 0.00 83 1015.5
20260508050600 13 0 0.0 0.0 0.00 0.00 0.00 83 1015.8
20260508050057 13 0 0.0 0.0 0.00 0.00 0.00 83 1015.8
20260508045556 13 0 0.0 0.0 0.00 0.81 0.00 83 1015.8
20260508045059 13 0 0.0 0.0 0.00 0.81 0.00 83 1015.6
20260508044606 13 0 0.0 0.0 0.00 0.81 0.00 83 1015.7
20260508044100 13 0 0.0 0.0 0.00 0.81 0.00 83 1015.6
20260508043600 13 0 0.0 0.0 0.00 0.81 0.00 83 1015.5
20260508043111 13 0 0.0 0.0 0.00 0.81 0.00 83 1015.6
20260508042600 13 0 0.0 0.0 0.00 0.81 0.00 82 1015.5
20260508042056 13 0 0.0 0.0 0.00 0.81 0.00 82 1015.6
20260508041556 13 0 0.0 0.0 0.00 0.81 0.00 82 1015.6
20260508041057 13 0 0.0 0.0 0.00 0.81 0.00 81 1015.7
20260508040558 14 0 0.0 0.0 0.00 0.81 0.00 81 1015.7
20260508040101 14 0 0.0 0.0 0.00 0.81 0.00 79 1015.7
20260508035556 14 0 0.0 0.0 0.00 0.81 0.00 77 1015.7
20260508035056 14 0 0.0 0.0 0.00 0.81 0.00 75 1015.7
20260508034558 14 0 0.0 0.0 0.00 0.81 0.00 75 1015.9
20260508034057 14 0 0.0 0.0 0.00 0.81 0.00 75 1015.9
20260508033556 15 0 0.0 0.0 0.00 0.81 0.00 75 1015.8
20260508033055 14 0 0.0 0.0 0.00 0.81 0.00 75 1016.1
20260508032559 14 0 0.0 0.0 0.00 0.81 0.00 75 1016.0
20260508032055 15 0 0.0 0.0 0.00 0.81 0.00 74 1016.1
20260508031556 15 0 0.0 0.0 0.00 0.81 0.00 75 1016.1
20260508031057 15 0 0.0 0.0 0.00 0.81 0.00 75 1016.0
20260508030558 15 0 0.0 0.0 0.00 0.81 0.00 74 1016.0
20260508025556 15 0 0.0 0.0 0.00 0.81 0.00 72 1016.0
20260508025056 15 0 0.0 0.0 0.00 0.81 0.00 72 1015.9
20260508024559 15 0 0.0 0.0 0.00 0.81 0.00 76 1016.1
20260508024056 15 0 0.0 0.0 0.00 0.81 0.00 77 1016.0
20260508023556 15 0 0.0 0.0 0.00 0.81 0.00 74 1016.0
20260508023108 15 0 0.0 0.0 0.00 0.81 0.00 70 1015.9
20260508022553 15 0 0.0 0.0 0.00 0.81 0.00 70 1015.8
20260508022052 15 0 0.0 0.0 0.00 0.81 0.00 71 1015.6
20260508021552 15 0 0.0 0.0 0.00 0.81 0.00 73 1015.7
20260508021052 15 0 0.0 0.0 0.00 0.81 0.00 70 1015.5
20260508020552 16 0 0.0 0.0 0.00 0.81 0.00 71 1015.7
20260508020053 16 0 0.0 0.0 0.00 0.81 0.00 68 1015.6
20260508015555 16 0 0.0 0.0 0.00 0.81 0.00 70 1015.6
20260508015052 15 0 0.0 0.0 0.00 0.81 0.00 71 1015.5
20260508014553 15 0 0.0 0.0 0.00 0.81 0.00 71 1015.5
20260508014053 15 0 0.0 0.0 0.00 0.81 0.00 72 1015.4
20260508013553 15 0 0.0 0.0 0.00 0.81 0.00 72 1015.3
20260508013051 15 0 0.0 0.0 0.00 0.81 0.00 72 1015.2
20260508012552 15 0 0.0 0.0 0.00 0.81 0.00 72 1015.2
20260508012052 16 0 0.0 0.0 0.00 0.81 0.00 72 1015.1
20260508011555 16 0 0.0 0.0 0.00 0.81 0.00 71 1015.1
20260508011056 16 0 0.0 0.0 0.00 0.81 0.00 75 1015.2
20260508010552 16 0 0.0 0.0 0.00 0.81 0.00 72 1015.2
20260508010053 16 0 0.0 0.0 0.00 0.81 0.00 71 1015.2
20260508005552 16 0 0.0 0.0 0.00 0.81 0.00 65 1015.0
20260508005052 17 0 0.0 0.0 0.00 0.81 0.00 65 1015.1
20260508004555 17 0 0.0 0.0 0.00 0.81 0.00 64 1015.0
20260508004052 17 0 0.0 0.0 0.00 0.81 0.00 63 1014.9
20260508003552 17 0 0.0 0.0 0.00 0.81 0.00 62 1015.1
20260508003059 17 0 0.0 0.0 0.00 0.81 0.00 61 1015.0
20260508002552 17 0 0.0 0.0 0.00 0.81 0.00 61 1015.0
20260508002052 17 0 0.0 0.0 0.00 0.81 0.00 61 1015.0
20260508001555 18 0 0.0 0.0 0.00 0.81 0.00 60 1015.0
20260508001052 18 0 0.0 0.0 0.00 0.81 0.00 59 1014.9
20260508000554 18 0 0.0 0.0 0.00 0.81 0.00 58 1014.9
20260508000054 18 0 0.0 0.0 0.00 0.81 0.00 58 1015.1
20260507235552 18 0 0.0 0.0 0.00 0.81 0.00 58 1014.9
20260507235052 18 0 0.0 0.0 0.00 0.81 0.00 56 1015.1
20260507234603 18 0 0.0 0.0 0.00 0.81 0.00 56 1014.9
20260507234051 18 0 0.0 0.0 0.00 0.81 0.00 55 1015.1
20260507233553 18 0 0.0 0.0 0.00 0.81 0.00 56 1015.0
20260507233056 18 0 0.0 0.0 0.00 0.81 0.00 56 1015.0
20260507232553 18 0 0.0 16.1 0.00 0.81 0.00 54 1015.0
20260507232052 18 0 0.0 16.1 0.00 0.81 0.00 54 1015.0
20260507231558 18 0 4.8 16.1 0.00 0.81 0.00 54 1015.1
20260507231052 19 0 0.0 1.6 0.00 0.81 0.00 53 1015.1
20260507230552 19 0 0.0 12.9 0.00 0.81 0.00 53 1015.2
20260507230058 19 0 0.0 14.5 0.00 0.81 0.00 52 1015.1
20260507225552 19 0 8.0 14.5 0.00 0.81 0.00 52 1015.1
20260507225052 19 0 0.0 12.9 0.00 0.81 0.00 51 1015.1
20260507224555 19 0 0.0 12.9 0.00 0.81 0.00 51 1015.1
20260507224054 19 0 0.0 12.9 0.00 0.81 0.00 51 1015.1
20260507223553 19 309 1.6 12.9 0.00 0.81 0.00 52 1015.2
20260507223058 19 0 0.0 12.9 0.00 0.81 0.00 52 1015.2
20260507222553 19 335 0.0 16.1 0.00 0.81 0.00 51 1015.3
20260507222051 19 0 1.6 16.1 0.00 0.81 0.00 52 1015.3
20260507221552 19 0 0.0 16.1 0.00 0.81 0.00 53 1015.2
20260507221057 19 0 4.8 16.1 0.00 0.81 0.00 52 1015.3